2018-092C (44041 NORAD) Tracking and Keplerian Element Data

This shows tracking and keplerian element data for the satellite.

Feedback or suggestion? Click here.




ElementValue
Catalog44041
Name2018-092C
Epoch Orbit403
Epoch Day65.63241927
Epoch Year2019
RAAN154.2917
Inclination51.6416
Eccentricity0.0004468
Argument of Perigee87.6611
Mean Anonmoly272.4884
Mean Motion15.36515618
Decay Rate1.639E-05
L11 44041U 18092C 19065.63241927 .00001639 00000-0 56000-4 0 9992
L22 44041 51.6416 154.2917 0004468 87.6611 272.4884 15.36515618 4031

Live tracking and technical data element details for 2018-092C (NORAD 44041). 2018-092C can be tracked NOW for your location showing map with azimuth and elevation plus other details from your city location.

Track the satellite on the map from your city or location and see movement details for azimuth, elevation, latitude, longitude, range, height, and movement on the map or in text.







IsCatalogInMostPopularTable: catalog: 44041, numindb: 82
Update: records affected: 1



GetName: 44041 2018-092C

Hit Count: updated at: Fri, 19 Jul 2019 22:47:09 GMT